{"data":{"norad_id":67933,"intl_designator":"2026-037B","name":"STARLINK-36852","alt_names":[],"object_type":"PAYLOAD","status":"ACTIVE","operator":null,"country":"US","launch_date":"2026-02-24","launch_site_code":"AFETR","launch_vehicle":null,"mission":null,"orbit_class":"UNKNOWN","rcs_meters":null,"size_class":null,"mass_kg":null,"dimensions":null,"purposes":["comms"],"wikipedia_slug":null,"has_3d_model":false,"image_url":null,"decayed_at":null,"tle_current":{"epoch":"2026-05-24T23:27:58.745664Z","epoch_age_seconds":73650,"freshness":"FRESH","line1":"1 67933U 26037B   26144.97776326  .00014655  00000+0  54082-3 0  9992","line2":"2 67933  43.0046 120.2872 0002085 266.9809  93.0804 15.27592518 15009","mean_motion":15.27592518,"eccentricity":0.0002085,"inclination_deg":43.0046,"raan_deg":120.2872,"arg_perigee_deg":266.9809,"mean_anomaly_deg":93.0804,"bstar":0.00054082,"rev_number":1500,"period_min":94.265976235948,"perigee_km":481.5810634145,"apogee_km":484.44216238608,"semimajor_km":6861.1486129003,"source":"CELESTRAK","updated_at":"2026-05-25T13:38:21.766167Z"}}}